Wind_Speed
16 29 31 38 39 40 41 41 40 42 40 36 38 34 36 37 38 41 42 39 38 37 41 32 36 32 29 27 23 22 19 16 15 12 7 7 9 15 14 11 9 9 8
10 12 28 33 39 40 43 42 43 43 48 42 39 34 32 32 34 35 40 41 40 39 40 34 37 35 32 29 26 24 20 16 15 7 4 1 5 11 10 9 6 12 13
15 14 14 29 41 41 43 45 45 46 48 44 35 30 28 24 30 36 40 45 45 44 44 40 38 35 33 33 31 27 24 19 18 14 6 2 4 3 8 8 17 19 18
15 17 16 18 38 45 44 47 48 47 46 43 39 40 39 30 37 33 34 42 44 45 46 45 41 39 36 35 34 30 28 25 19 15 13 6 4 3 3 10 16 19 19
18 19 17 21 39 46 44 45 48 46 46 46 46 45 39 40 32 30 31 38 44 45 46 47 45 42 40 39 35 33 30 28 24 21 13 12 8 6 4 3 7 19 17
17 18 21 29 31 42 43 44 46 46 46 47 46 46 46 37 33 33 36 38 39 46 45 44 47 49 43 41 39 36 33 31 29 27 24 20 10 8 7 3 4 13 14
16 18 17 15 18 35 41 40 42 43 46 47 47 46 46 42 43 39 39 31 33 39 47 46 46 44 50 44 40 36 34 33 30 28 27 24 22 15 15 13 6 4 9
19 17 17 15 17 25 37 41 43 44 46 47 48 47 47 42 41 40 38 40 39 40 39 47 45 44 47 46 40 37 36 34 31 29 29 25 22 20 24 16 17 3 3
12 16 13 12 17 26 38 44 45 47 47 50 50 47 45 41 40 41 42 42 41 40 40 45 47 46 46 44 41 39 38 34 31 27 25 25 23 21 19 18 21 13 4
8 9 8 11 20 31 41 46 50 51 51 51 50 49 48 46 43 39 41 42 44 43 43 43 45 46 44 41 43 40 37 34 31 31 31 28 24 19 16 16 16 14 9
12 9 9 9 19 23 30 38 44 47 47 49 48 43 41 41 40 41 45 44 41 43 44 45 46 44 42 40 42 41 36 34 33 33 32 27 24 21 18 16 14 13 11
22 18 10 10 9 18 26 33 37 41 45 47 46 44 42 39 41 42 44 44 46 46 45 45 43 39 43 44 43 40 39 41 38 37 33 28 24 20 19 17 16 14 11
16 20 13 13 12 13 22 31 36 38 39 40 43 40 36 38 42 43 45 48 44 42 41 39 41 41 44 48 47 43 41 39 38 35 32 29 27 25 22 20 18 16 14
16 7 5 4 6 8 15 22 26 34 35 39 42 40 37 41 43 46 44 46 45 41 41 40 38 41 42 41 41 43 41 36 32 33 32 30 29 28 26 23 21 19 17
21 19 7 5 3 5 9 16 17 22 32 33 36 40 40 40 37 35 38 40 40 39 37 37 40 43 47 49 43 41 40 35 32 29 28 28 26 24 24 25 24 21 18
17 16 18 8 4 6 7 13 17 17 22 25 25 30 32 34 34 36 36 38 37 35 38 41 41 39 34 38 49 50 47 41 38 35 30 28 26 25 23 21 20 17 19
15 18 15 11 9 3 13 12 18 19 19 19 18 22 26 28 30 32 34 36 35 37 38 38 39 36 38 44 52 47 41 43 44 40 37 32 30 28 27 23 19 16 14
15 17 17 13 14 5 8 13 13 14 16 16 18 20 23 24 25 29 30 30 35 39 38 37 38 38 41 48 47 43 43 43 42 41 39 37 35 31 29 26 22 18 16
12 13 20 24 24 7 7 13 11 12 13 14 17 20 26 28 29 27 29 32 31 27 29 35 38 37 42 47 48 47 42 45 43 39 37 36 35 32 29 27 26 23 19
1 12 24 31 25 23 7 8 14 14 14 15 17 19 23 26 24 26 28 27 27 30 31 30 32 39 48 47 48 45 44 42 41 38 36 35 35 33 29 30 32 30 26
9 3 15 19 25 26 10 11 10 13 13 14 16 17 20 23 27 27 28 27 28 28 27 29 30 37 46 48 48 49 48 46 41 41 38 36 35 34 32 31 31 30 31
5 16 7 11 15 21 20 7 10 13 15 17 20 21 21 22 25 29 27 29 30 33 28 27 26 30 40 46 46 47 45 46 47 44 42 39 37 35 33 30 27 26 29
3 2 10 12 6 5 12 14 19 15 16 19 20 21 23 24 26 26 25 24 28 25 26 28 26 27 30 42 44 43 42 43 39 41 42 40 38 33 30 28 26 28 29
5 5 5 3 6 15 10 12 18 15 15 18 21 24 24 24 26 26 28 27 25 23 23 24 24 25 28 34 41 42 39 41 39 37 36 35 33 32 28 27 29 30 29
10 11 7 8 10 9 12 12 10 7 11 15 17 20 21 25 24 25 29 28 30 38 35 31 34 35 31 35 35 44 38 37 39 39 37 35 34 31 29 28 28 29 29
10 10 12 8 13 13 8 9 10 1 10 13 17 21 20 21 22 23 21 22 28 33 33 32 39 32 32 33 35 37 36 36 37 36 30 26 28 28 31 31 30 30 30
Wind_Direction
210 209 200 190 194 191 188 188 187 186 183 186 188 193 199 204 207 212 214 213 210 210 212 215 210 208 208 212 204 204 212 214 221 220 235 237 242 235 241 250 236 224 177
215 193 208 189 191 191 191 190 189 184 189 191 193 195 199 203 208 210 214 214 213 212 211 214 209 211 210 215 211 206 208 210 207 175 131 32 270 243 251 238 208 150 146
217 223 191 192 190 192 191 191 189 189 191 194 188 191 192 203 201 207 213 213 214 213 212 212 210 210 212 212 212 208 210 197 197 202 173 118 229 104 55 113 127 127 126
223 222 208 188 190 195 194 190 190 191 192 189 187 186 189 194 205 202 204 205 208 209 212 216 215 215 216 215 215 214 214 213 189 188 205 187 153 143 95 67 106 117 118
219 224 217 192 193 196 193 192 191 191 190 187 190 190 195 204 199 204 205 211 212 215 213 217 218 216 218 219 218 216 214 215 205 195 180 181 183 148 136 143 130 99 94
216 214 214 211 192 198 196 192 191 194 191 190 192 194 199 198 195 195 203 207 211 217 223 223 224 219 216 219 218 218 217 216 218 216 210 190 175 181 160 129 136 128 72
211 215 214 214 192 195 198 193 191 194 194 193 193 196 200 197 197 196 196 194 203 210 219 221 220 216 217 219 216 217 217 214 212 214 213 213 209 199 179 148 139 139 138
210 203 207 203 205 192 195 189 192 195 194 194 196 198 201 198 200 199 198 199 203 210 211 218 219 219 216 215 214 215 214 212 214 215 210 203 204 207 191 168 154 97 127
217 225 215 206 202 189 192 192 192 196 193 195 197 199 201 199 199 200 200 202 204 208 211 215 213 217 217 216 211 213 211 208 207 201 201 193 183 184 189 189 186 154 155
231 239 232 213 208 199 196 197 193 193 196 198 197 199 199 199 199 197 199 202 204 205 206 209 209 212 214 213 211 209 207 204 197 192 184 180 177 182 185 186 186 189 147
250 235 233 218 215 204 197 201 196 196 199 197 198 199 200 200 197 198 202 204 201 202 204 203 204 205 208 210 205 204 202 194 185 185 183 177 176 177 175 177 175 171 165
251 246 232 230 214 216 198 195 198 202 201 198 196 195 197 194 193 197 199 202 204 203 203 199 198 196 201 205 203 200 196 190 184 182 180 173 172 172 174 174 168 164 164
286 262 244 227 224 220 196 199 198 199 198 194 193 194 190 190 192 195 198 202 199 198 196 194 193 195 200 201 199 198 191 188 188 183 182 176 176 171 169 167 161 160 157
353 248 135 181 214 182 189 190 192 192 186 185 189 190 187 190 193 195 194 198 196 189 192 195 194 191 193 192 191 187 184 189 188 187 187 182 183 177 169 165 164 160 152
357 1 360 10 38 79 117 135 157 180 185 175 179 188 194 193 192 188 190 192 190 190 189 184 187 194 196 192 184 182 183 184 183 184 184 181 182 180 177 172 166 162 152
346 350 4 350 39 75 71 91 110 127 160 162 171 183 186 184 184 187 186 187 187 185 179 183 185 184 182 182 189 186 183 182 182 176 176 175 175 174 174 171 169 176 170
336 343 347 344 327 118 128 113 114 117 124 130 147 160 169 174 178 180 180 178 178 175 178 180 181 177 183 185 186 184 180 178 179 179 175 169 171 171 168 167 165 165 174
341 337 341 343 352 286 125 129 131 125 127 135 150 162 170 168 168 173 177 175 176 177 175 175 177 177 184 183 184 183 182 183 181 179 176 172 169 175 171 164 158 164 167
345 326 332 324 339 355 175 147 145 143 144 160 168 173 172 172 175 173 176 174 172 173 174 175 172 171 173 180 183 172 167 175 174 177 177 176 171 172 173 167 159 156 151
106 329 331 326 342 335 210 202 173 174 177 183 183 190 184 173 168 171 169 169 169 166 168 169 170 177 176 186 185 183 174 168 170 174 177 179 176 176 179 174 168 161 159
168 190 304 312 330 335 254 202 191 214 206 193 189 193 195 182 176 168 162 156 155 158 158 159 166 174 180 181 186 187 177 172 168 171 176 178 182 178 179 180 177 176 164
201 156 229 260 302 335 358 311 245 229 210 197 189 189 194 184 179 170 161 159 159 154 152 148 148 164 170 179 189 187 188 181 174 173 176 177 179 178 177 177 176 172 166
261 146 184 228 291 48 10 349 343 298 217 197 192 183 186 184 178 167 161 157 162 159 160 159 158 159 169 174 187 190 186 180 177 177 179 175 176 176 179 175 176 174 175
257 219 157 49 326 331 349 344 339 343 217 195 188 181 178 175 176 175 172 167 169 165 164 162 162 158 162 167 177 183 181 180 179 176 171 170 171 178 176 177 178 180 183
313 294 202 199 205 263 304 324 331 333 218 203 180 174 176 175 175 179 181 184 188 186 177 180 171 164 172 178 175 174 168 172 179 166 166 168 175 176 177 181 184 188 189
307 315 317 261 223 201 224 277 302 260 212 182 177 180 181 179 179 178 182 196 200 197 194 187 178 176 170 167 170 174 171 179 177 162 161 166 175 177 182 184 184 187 189
Height
693 696 699 704 709 714 720 726 733 738 748 754 759 766 767 773 777 780 784 789 793 797 803 805 809 811 814 817 821 824 826 829 832 835 836 838 838 839 840 842 843 844 846
686 690 692 697 702 705 711 719 724 731 737 743 749 758 764 768 773 777 780 785 788 792 797 801 804 807 810 814 817 820 823 827 830 833 835 839 839 838 838 841 842 843 845
678 679 685 689 691 698 701 709 715 721 727 734 746 754 762 766 769 769 774 776 781 785 791 795 800 803 806 808 812 816 819 822 826 829 832 838 839 837 840 842 843 844 844
668 668 672 679 682 685 690 697 705 711 719 729 737 741 743 750 753 760 767 771 775 779 783 789 794 799 802 805 808 811 815 818 820 826 828 829 831 836 844 845 845 846 846
660 661 663 667 671 675 681 688 695 703 710 716 723 729 735 738 749 757 762 766 770 774 777 782 786 792 796 799 803 806 809 814 817 819 823 826 830 831 835 845 849 849 850
652 652 652 655 663 668 672 679 686 694 702 707 714 720 724 732 741 747 752 757 763 768 771 775 778 783 788 793 797 801 805 808 811 815 816 818 823 827 831 837 843 846 852
645 646 647 648 653 659 664 672 679 686 693 698 704 710 715 723 727 732 739 748 754 759 761 765 770 774 779 785 792 796 799 802 806 809 811 814 816 818 824 830 838 842 849
632 638 638 639 642 650 656 661 669 675 682 687 693 700 706 714 719 725 730 735 741 746 754 759 765 768 772 778 785 790 793 797 800 803 804 808 811 815 817 823 829 841 844
628 625 629 631 633 639 645 650 656 662 670 675 683 691 699 707 712 716 722 725 730 737 744 750 756 762 767 772 778 782 787 791 794 798 802 805 809 812 814 818 822 826 840
626 623 623 623 625 626 630 638 642 648 656 664 671 678 685 694 702 709 714 717 721 727 734 742 749 755 761 767 772 777 781 786 788 793 796 800 805 809 813 815 818 821 826
620 620 618 619 618 621 625 631 634 639 646 653 660 671 680 688 696 700 704 710 716 721 726 733 739 747 755 761 767 771 776 780 784 788 793 798 801 806 810 813 816 820 825
606 607 611 611 613 615 617 621 627 633 636 642 651 660 668 678 686 691 695 703 707 712 719 725 732 740 745 753 760 766 770 774 779 784 789 796 799 805 809 811 815 819 824
605 595 599 603 605 604 607 610 616 620 627 636 645 653 662 669 675 682 688 693 700 707 713 722 726 732 737 744 750 757 766 773 778 783 789 794 798 802 806 809 814 820 824
615 604 602 600 598 597 600 601 607 613 619 628 636 645 653 659 666 672 679 686 692 698 705 713 722 726 733 742 749 751 760 772 780 783 787 790 796 799 804 808 812 818 823
626 619 611 604 599 599 602 600 604 609 615 622 630 637 644 653 661 668 674 681 687 694 702 710 715 721 724 730 739 745 757 768 778 786 789 791 797 801 804 806 812 816 821
639 628 619 615 610 606 606 605 605 608 614 622 629 635 642 649 656 662 669 676 683 691 696 703 709 715 723 727 733 738 748 754 772 779 786 790 795 801 805 808 812 815 818
640 634 629 627 621 611 610 611 611 613 617 624 631 635 640 646 654 660 667 672 679 685 692 698 704 710 717 722 726 737 749 755 762 771 780 786 793 798 803 807 811 814 819
639 639 634 629 625 622 615 616 617 617 619 624 632 637 641 647 652 659 664 669 674 678 683 691 698 704 712 717 724 733 742 753 762 769 776 781 789 795 799 805 809 815 819
642 645 637 635 626 624 621 617 620 622 624 628 632 636 640 644 649 656 662 667 674 680 685 688 694 701 710 718 722 726 737 748 756 766 774 780 786 792 796 801 806 814 818
650 641 634 640 626 626 623 626 621 622 625 629 632 636 641 643 647 653 658 666 672 677 682 689 694 698 704 715 720 728 737 748 755 764 772 777 782 787 792 795 802 809 815
645 645 644 639 636 634 625 624 623 624 627 630 633 638 643 646 649 654 657 664 670 677 683 689 694 699 703 712 717 724 731 741 751 758 767 772 779 783 788 794 799 803 810
631 638 647 643 640 640 631 630 627 622 625 630 632 638 644 649 651 654 660 665 670 674 683 690 696 702 704 711 718 722 730 738 744 752 760 768 776 782 788 792 799 805 810
630 632 634 638 639 636 638 634 629 625 627 629 632 637 643 646 650 656 661 664 669 675 680 685 692 698 703 707 717 725 729 738 747 753 758 765 773 782 790 793 798 803 808
628 632 634 634 639 633 637 637 632 626 627 629 630 634 640 644 649 655 659 663 668 672 677 681 689 696 705 710 718 721 731 737 744 752 764 770 777 783 788 794 797 800 805
629 629 629 631 635 639 639 637 632 627 626 631 632 635 639 643 648 651 654 659 662 663 668 674 679 686 698 703 707 718 726 736 743 752 762 770 778 784 788 792 795 799 802
628 627 627 630 630 630 631 632 632 625 627 630 632 634 639 641 646 650 655 658 661 663 667 671 674 684 691 704 717 723 727 734 748 755 761 768 775 779 785 788 792 796 798